Regional Weather Roundup
Issued by NWS

Home | Current Version | Previous Version | Text Only | Print | Product List | Glossary On
Versions: 1 2 3 4 5 6 7 8 9 10 11 12 13 14 15 16 17 18 19 20 21 22 23 24 25 26 27 28 29 30 31 32 33 34 35 36 37 38 39 40 41 42 43 44 45 46 47 48 49 50
000
ASUS43 KMKX 280321
RWRWI

WISCONSIN REGIONAL WEATHER ROUNDUP
NATIONAL WEATHER SERVICE MILWAUKEE/SULLIVAN WI
1000 PM CDT MON JUL 27 2015

NOTE: "FAIR" INDICATES FEW OR NO CLOUDS BELOW 12,000 FEET WITH NO
SIGNIFICANT WEATHER AND/OR OBSTRUCTIONS TO VISIBILITY.

WIZ001-002-006>008-014>016-023>028-280400-
NORTHWEST WISCONSIN

CITY           SKY/WX    TMP DP  RH WIND       PRES   REMARKS
SUPERIOR ARPT  CLEAR     69  68  97 NE3       29.93S
ASHLAND        CLEAR     64  63  96 S3        29.97R
HAYWARD        CLEAR     74  62  66 SE3       29.98S
SIREN          CLEAR     76  67  72 SE6       29.94S
CUMBERLAND     CLEAR     70  64  83 CALM      29.97S
RICE LAKE      CLEAR     74  66  75 E3        29.98S
CHETEK         CLEAR     76  69  79 E3        29.97R
LADYSMITH      MOCLDY    74  65  74 E3        30.01R
EAU CLAIRE     CLEAR     78  68  71 SE5       29.95R HX  80
MENOMONIE      CLEAR     74  70  86 E6        29.95S
NEW RICHMOND   CLEAR     74  68  81 SE5       29.94S
OSCEOLA        CLEAR     76  69  80 SE8       29.95S
$$

WIZ003>005-009-010-017-018-280400-
NORTH CENTRAL WISCONSIN

CITY           SKY/WX    TMP DP  RH WIND       PRES   REMARKS
MANITOWISH WTR CLEAR     67  65  93 CALM      30.03R
ARBOR VITAE    CLEAR     72  63  73 SE3       30.04R
WOODRUFF       CLEAR     72  63  73 SE3       30.04R
RHINELANDER    CLEAR     72  61  68 CALM      30.06R
EAGLE RIVER    CLEAR     67  60  76 CALM      30.05R
LAND O LAKES   CLEAR     65  61  88 CALM      30.05S
PHILLIPS       CLEAR     70  64  81 CALM      30.02R
TOMAHAWK       PTCLDY    66  61  83 CALM      30.04S
MEDFORD        CLEAR     70  64  79 SE3       30.02S
MERRILL        NOT AVBL
$$

WIZ029-030-035-036-043>047-280400-
CENTRAL WISCONSIN

CITY           SKY/WX    TMP DP  RH WIND       PRES   REMARKS
WAUSAU         PTCLDY    73  65  75 E6        30.01R
MOSINEE        CLEAR     72  64  78 SE5       30.04R
MARSHFIELD     CLEAR     74  62  66 SE3       30.01R
STEVENS POINT  PTCLDY    69  64  82 CALM      30.03R
WAUPACA        CLEAR     72  67  84 CALM      30.02R
WAUTOMA        CLEAR     71  65  81 CALM      30.02R
WISC RAPIDS    PTCLDY    74  62  66 SE6       30.02R
CAMP DOUGLAS   PTCLDY    70  70 100 E6        29.99R
$$

WIZ011>013-019>022-031-037>040-048>050-280400-
NORTHEAST WISCONSIN

CITY           SKY/WX    TMP DP  RH WIND       PRES   REMARKS
ANTIGO         PTCLDY    66  62  87 CALM      30.06R
SHAWANO        PTCLDY    75  65  70 S3        30.02R
OCONTO         PTCLDY    68  68 100 CALM      30.01R
STURGEON BAY   CLEAR     70  59  68 S3        30.04S
GREEN BAY      MOCLDY    71  62  73 CALM      30.01R
MANITOWOC      PTCLDY    68  64  87 MISG      30.02R
APPLETON       MOCLDY    73  61  64 MISG      30.02R
CLINTONVILLE   PTCLDY    68  63  83 CALM      30.02R
OSHKOSH        CLEAR     70  62  76 S5        30.01R
$$

WIZ032>034-041-042-053>061-280400-
SOUTHWEST WISCONSIN

CITY           SKY/WX    TMP DP  RH WIND       PRES   REMARKS
LA CROSSE      CLEAR     77  70  79 SE5       29.95R
SPARTA         PTCLDY    71  66  84 CALM      29.98R
VIROQUA        CLEAR     73  69  88 SE5       30.00R
BOSCOBEL       MOCLDY    73  70  90 CALM      29.98R
PRAIRIE DU CHI MOCLDY    76  69  78 E5        29.96R
PLATTEVILLE    MOCLDY    76  72  86 SE3       30.00R
$$

WIZ056-057-062-063-064-067-068-280400-
SOUTH CENTRAL WISCONSIN

CITY           SKY/WX    TMP DP  RH WIND       PRES   REMARKS
REEDSBURG      PTCLDY    75  67  76 E3        29.99S
BARABOO/DELLS  CLEAR     74  63  69 SE3       30.00S
LONE ROCK      PTCLDY    74  67  78 E7        29.99R
MINERAL POINT  MOCLDY    77  70  78 E7        30.01R
MADISON        PTCLDY    76  64  66 SE6       30.00R
MIDDLETON      CLEAR     76  63  63 SE5       30.01R
WATERTOWN      PTCLDY    69  63  81 CALM      30.01R
MONROE         MOCLDY    73  63  68 E9        30.00S
JANESVILLE     PTCLDY    72  63  73 SE3       30.01R
$$

WIZ051-052-058>065-066-070>072-280400-
SOUTHEAST WISCONSIN

CITY           SKY/WX    TMP DP  RH WIND       PRES   REMARKS
MILWAUKEE      MOCLDY    71  65  81 E7        30.02R
WAUKESHA       PTCLDY    68  59  73 E6        30.03R
MILWAUKEE/TIMM PTCLDY    72  61  68 E3        30.03R
RACINE         PTCLDY    72  66  81 E5        30.04R
BURLINGTON     MOCLDY    67  63  87 CALM      30.02R
KENOSHA        MOCLDY    67  63  87 E7        30.02R
FOND DU LAC    CLEAR     72  63  73 SE7       30.02R
SHEBOYGAN      PTCLDY    67  63  87 CALM      30.02R
WEST BEND      PTCLDY    64  61  88 CALM      30.03R
JUNEAU           N/A     70  63  79 E3        30.04R
$$

LSZ147-162-280400-
LAKE SUPERIOR

STATION/POSITION TIME  TEMP    WIND        PRES    WAVE
                       AIR SEA DIR/SP/G            HT/PER
                 (UTC) (F)     (DEG/KT/KT) (MB)    (FT/S)
W MID LAKE BUOY  0250   65 63  110/  8/  8 1014.3R   0
DEVILS ISLAND    0300   72     130/ 11/ 12 1014.1R
PORT WING        0200   80     150/  3/  5 1013.9
SAXON HARBOR     0200   72                 1013.9R
$$

LMZ867-665-643>646-280400-
LAKE MICHIGAN

STATION/POSITION TIME  TEMP    WIND        PRES    WAVE
                       AIR SEA DIR/SP/G            HT/PER
                 (UTC) (F)     (DEG/KT/KT) (MB)    (FT/S)
CHAMBERS ISLAND  0200   71     140/  2/  3 1015.9R
S GREEN BAY BUOY 0230   78 77  150/  6/  8 1017.1F
N MID LAKE BUOY  0250   72 70  230/  2/  2 1016.3R   0
NORTHPORT PIER   0200   74     170/  2/  3 1015.9S
SISTER BAY       0114   79        CALM       N/A
ALGOMA LAKESHORE 0212             CALM       N/A
KEWAUNEE LAKESHO 0200   69     160/  2/  3 1015.9R
SHEBOYGAN LAKESH 0300   73     130/  4/  5 1016.5R
PORT WASHINGTON  0200   75      30/  2/  3 1016.6S
ATWATER BUOY     0300   73     110/  4/  4 1017.9R
MILWAUKEE LAKESH 0300   72      70/  5/  6   N/A
KENOSHA   LAKESH 0300   73      50/  3/  5 1016.3R
$$

TC  - TEMPERATURE IN CELSIUS
VSB - VISIBILITY IN STATUTE MILES
WCI - WIND CHILL INDEX
HX  - HEAT INDEX



USA.gov is the U.S. government's official web portal to all federal, state and local government web resources and services.